When you browse on this site, cookies collect data to enhance your experience and personalize the content and advertising you see.
Visit our Privacy Policy to learn more. By continuing to use the site, you agree to this use of cookies and data.
  • în România
  • Lista ţărilor
  • Pe 7 zile
  • Temperatura apei
  • Meteo pe hartă
  • Widget-uri
  • user-avatar
    Intrare

    Meteo pe oră la Słubice

    Astăzi, 22 August, Joi

    Timp Temperatura Precipitaţii Vânt Presiune Umiditate
    00:00 +18°C° 0 mm 1 m/s 769 mmHg 71%
    01:00 +16°C° 0 mm 1 m/s 769 mmHg 73%
    02:00 +16°C° 0 mm 1 m/s 769 mmHg 75%
    03:00 +16°C° 0 mm 1 m/s 769 mmHg 77%
    04:00 +15°C° 0 mm 1 m/s 769 mmHg 79%
    05:00 +16°C° 0 mm 1 m/s 769 mmHg 78%
    06:00 +18°C° 0 mm 1 m/s 769 mmHg 76%
    07:00 +19°C° 0 mm 1 m/s 769 mmHg 74%
    08:00 +19°C° 0 mm 2 m/s 769 mmHg 66%
    09:00 +21°C° 0 mm 2 m/s 769 mmHg 57%
    10:00 +24°C° 0 mm 2 m/s 769 mmHg 49%
    11:00 +25°C° 0 mm 2 m/s 769 mmHg 45%
    12:00 +26°C° 0 mm 2 m/s 769 mmHg 42%
    13:00 +26°C° 0 mm 2 m/s 768 mmHg 39%
    14:00 +26°C° 0 mm 2 m/s 768 mmHg 39%
    15:00 +27°C° 0 mm 2 m/s 768 mmHg 39%
    16:00 +27°C° 0 mm 2 m/s 767 mmHg 39%
    17:00 +25°C° 0 mm 2 m/s 767 mmHg 46%
    18:00 +24°C° 0 mm 2 m/s 767 mmHg 53%
    19:00 +21°C° 0 mm 2 m/s 767 mmHg 60%
    20:00 +20°C° 0 mm 2 m/s 768 mmHg 63%
    21:00 +19°C° 0 mm 2 m/s 768 mmHg 67%
    22:00 +18°C° 0 mm 2 m/s 768 mmHg 70%
    23:00 +18°C° 0 mm 2 m/s 768 mmHg 72%

    Mâine, 23 August, Vineri

    Timp Temperatura Precipitaţii Vânt Presiune Umiditate
    00:00 +18°C° 0 mm 2 m/s 768 mmHg 74%
    01:00 +17°C° 0 mm 2 m/s 768 mmHg 77%
    02:00 +18°C° 0 mm 1 m/s 768 mmHg 78%
    03:00 +16°C° 0 mm 1 m/s 768 mmHg 80%
    04:00 +16°C° 0 mm 1 m/s 768 mmHg 82%
    05:00 +18°C° 0 mm 1 m/s 768 mmHg 79%
    06:00 +18°C° 0 mm 2 m/s 768 mmHg 77%
    07:00 +19°C° 0 mm 2 m/s 768 mmHg 74%
    08:00 +21°C° 0 mm 2 m/s 768 mmHg 66%
    09:00 +23°C° 0 mm 2 m/s 768 mmHg 59%
    10:00 +25°C° 0 mm 2 m/s 768 mmHg 52%
    11:00 +26°C° 0 mm 2 m/s 768 mmHg 49%
    12:00 +27°C° 0 mm 3 m/s 767 mmHg 46%
    13:00 +28°C° 0 mm 3 m/s 767 mmHg 43%
    14:00 +28°C° 0 mm 3 m/s 767 mmHg 43%
    15:00 +28°C° 0 mm 3 m/s 766 mmHg 43%
    16:00 +28°C° 0 mm 3 m/s 766 mmHg 44%
    17:00 +26°C° 0 mm 2 m/s 766 mmHg 50%
    18:00 +25°C° 0 mm 2 m/s 766 mmHg 56%
    19:00 +23°C° 0 mm 2 m/s 766 mmHg 63%
    20:00 +23°C° 0 mm 2 m/s 766 mmHg 65%
    21:00 +21°C° 0 mm 2 m/s 766 mmHg 67%
    22:00 +20°C° 0 mm 2 m/s 766 mmHg 69%
    23:00 +20°C° 0 mm 2 m/s 766 mmHg 69%

    Poimâine, 24 August, Sâmbătă

    Timp Temperatura Precipitaţii Vânt Presiune Umiditate
    00:00 +20°C° 0 mm 2 m/s 766 mmHg 70%
    01:00 +20°C° 0 mm 2 m/s 766 mmHg 70%
    02:00 +19°C° 0 mm 2 m/s 765 mmHg 72%
    03:00 +19°C° 0 mm 2 m/s 765 mmHg 73%
    04:00 +19°C° 0 mm 2 m/s 765 mmHg 75%
    05:00 +19°C° 0 mm 2 m/s 765 mmHg 74%
    06:00 +20°C° 0 mm 2 m/s 765 mmHg 73%
    07:00 +20°C° 0 mm 2 m/s 765 mmHg 72%
    08:00 +22°C° 0 mm 3 m/s 765 mmHg 67%
    09:00 +25°C° 0 mm 3 m/s 765 mmHg 62%
    10:00 +26°C° 0 mm 3 m/s 765 mmHg 56%
    11:00 +27°C° 0 mm 3 m/s 765 mmHg 53%
    12:00 +28°C° 0 mm 3 m/s 765 mmHg 50%
    13:00 +29°C° 0 mm 3 m/s 764 mmHg 47%
    14:00 +29°C° 0 mm 3 m/s 764 mmHg 48%
    15:00 +29°C° 0 mm 3 m/s 764 mmHg 48%
    16:00 +29°C° 0 mm 3 m/s 763 mmHg 49%
    17:00 +27°C° 0 mm 3 m/s 763 mmHg 53%
    18:00 +26°C° 0 mm 3 m/s 763 mmHg 57%
    19:00 +25°C° 0 mm 2 m/s 763 mmHg 60%
    20:00 +24°C° 0 mm 3 m/s 764 mmHg 62%
    21:00 +22°C° 0 mm 3 m/s 764 mmHg 63%
    22:00 +21°C° 0 mm 3 m/s 764 mmHg 65%
    23:00 +21°C° 0 mm 3 m/s 764 mmHg 65%

    25 August, Duminică

    Timp Temperatura Precipitaţii Vânt Presiune Umiditate
    00:00 +20°C° 0 mm 3 m/s 764 mmHg 66%
    01:00 +20°C° 0 mm 3 m/s 763 mmHg 67%
    02:00 +19°C° 0 mm 3 m/s 763 mmHg 68%
    03:00 +19°C° 0 mm 3 m/s 763 mmHg 70%
    04:00 +19°C° 0 mm 3 m/s 763 mmHg 71%
    05:00 +19°C° 0.2 mm 3 m/s 763 mmHg 71%
    06:00 +20°C° 0.2 mm 4 m/s 763 mmHg 71%
    07:00 +20°C° 0.2 mm 4 m/s 763 mmHg 72%
    08:00 +22°C° 0.1 mm 4 m/s 763 mmHg 69%
    09:00 +23°C° 0.1 mm 4 m/s 763 mmHg 66%
    10:00 +25°C° 0.1 mm 4 m/s 764 mmHg 64%
    11:00 +26°C° 0.5 mm 4 m/s 763 mmHg 65%
    12:00 +26°C° 0.5 mm 4 m/s 763 mmHg 67%
    13:00 +26°C° 0.5 mm 4 m/s 763 mmHg 68%
    14:00 +26°C° 0 mm 3 m/s 763 mmHg 67%
    15:00 +26°C° 0 mm 3 m/s 762 mmHg 67%
    16:00 +26°C° 0 mm 3 m/s 762 mmHg 66%
    17:00 +26°C° 0.2 mm 3 m/s 762 mmHg 69%
    18:00 +25°C° 0.2 mm 2 m/s 762 mmHg 71%
    19:00 +25°C° 0.2 mm 2 m/s 762 mmHg 73%
    20:00 +24°C° 0.3 mm 3 m/s 762 mmHg 75%
    21:00 +22°C° 0.3 mm 3 m/s 763 mmHg 77%
    22:00 +22°C° 0.3 mm 3 m/s 763 mmHg 79%
    23:00 +21°C° 0.1 mm 3 m/s 763 mmHg 82%

    26 August, Luni

    Timp Temperatura Precipitaţii Vânt Presiune Umiditate
    00:00 +21°C° 0.1 mm 3 m/s 763 mmHg 85%
    01:00 +20°C° 0.1 mm 3 m/s 763 mmHg 87%
    02:00 +20°C° 0.3 mm 2 m/s 762 mmHg 89%
    03:00 +20°C° 0.3 mm 2 m/s 762 mmHg 91%
    04:00 +19°C° 0.3 mm 2 m/s 762 mmHg 93%
    05:00 +20°C° 0.1 mm 2 m/s 762 mmHg 91%
    06:00 +21°C° 0.1 mm 2 m/s 763 mmHg 89%
    07:00 +21°C° 0.1 mm 2 m/s 763 mmHg 87%
    08:00 +24°C° 0 mm 2 m/s 763 mmHg 81%
    09:00 +26°C° 0 mm 2 m/s 763 mmHg 74%
    10:00 +27°C° 0 mm 2 m/s 763 mmHg 68%
    11:00 +28°C° 0 mm 2 m/s 763 mmHg 65%
    12:00 +28°C° 0 mm 2 m/s 763 mmHg 63%
    13:00 +29°C° 0 mm 2 m/s 763 mmHg 60%
    14:00 +29°C° 0 mm 2 m/s 762 mmHg 59%
    15:00 +29°C° 0 mm 2 m/s 762 mmHg 58%
    16:00 +29°C° 0 mm 3 m/s 762 mmHg 57%
    17:00 +28°C° 0 mm 2 m/s 762 mmHg 62%
    18:00 +26°C° 0 mm 2 m/s 762 mmHg 67%
    19:00 +25°C° 0 mm 1 m/s 762 mmHg 72%
    20:00 +24°C° 0 mm 2 m/s 762 mmHg 73%
    21:00 +24°C° 0 mm 2 m/s 762 mmHg 74%
    22:00 +23°C° 0 mm 2 m/s 762 mmHg 75%
    23:00 +23°C° 0 mm 2 m/s 762 mmHg 77%

    27 August, Marţi

    Timp Temperatura Precipitaţii Vânt Presiune Umiditate
    00:00 +22°C° 0 mm 1 m/s 762 mmHg 79%
    01:00 +22°C° 0 mm 1 m/s 762 mmHg 81%
    02:00 +22°C° 0 mm 1 m/s 762 mmHg 82%
    03:00 +21°C° 0 mm 1 m/s 762 mmHg 83%
    04:00 +21°C° 0 mm 1 m/s 762 mmHg 85%
    05:00 +22°C° 0 mm 1 m/s 762 mmHg 82%
    06:00 +23°C° 0 mm 1 m/s 762 mmHg 80%
    07:00 +23°C° 0 mm 2 m/s 762 mmHg 78%
    08:00 +25°C° 0 mm 2 m/s 762 mmHg 72%
    09:00 +27°C° 0 mm 2 m/s 762 mmHg 65%
    10:00 +29°C° 0 mm 2 m/s 762 mmHg 59%
    11:00 +30°C° 0 mm 2 m/s 761 mmHg 55%
    12:00 +31°C° 0 mm 2 m/s 761 mmHg 51%
    13:00 +32°C° 0 mm 2 m/s 761 mmHg 48%
    14:00 +32°C° 0 mm 2 m/s 760 mmHg 46%
    15:00 +34°C° 0 mm 2 m/s 760 mmHg 45%
    16:00 +34°C° 0 mm 2 m/s 759 mmHg 44%
    17:00 +31°C° 0 mm 1 m/s 759 mmHg 49%
    18:00 +30°C° 0 mm 1 m/s 759 mmHg 54%
    19:00 +28°C° 0 mm 1 m/s 759 mmHg 59%
    20:00 +27°C° 0.3 mm 1 m/s 759 mmHg 64%
    21:00 +26°C° 0.3 mm 1 m/s 759 mmHg 68%
    22:00 +25°C° 0.3 mm 1 m/s 759 mmHg 72%
    23:00 +25°C° 0.1 mm 1 m/s 759 mmHg 75%
    Arată mai mult